Roseau, MN

10:02 PM CDT on March 27, 2017 (GMT -0500)
Roseau Municipal-Billberg

Weather History for KROX - November, 2012

Change the Weather History Date:

Thursday, November 15, 2012

  Actual Average Record
Temperature  
Mean Temperature 24 °F -  
Max Temperature 35 °F 34 °F 64 °F (1953)
Min Temperature 12 °F 17 °F -2 °F (2002)
Degree Days  
Heating Degree Days 42    
Moisture  
Dew Point 16 °F    
Average Humidity 75    
Maximum Humidity 86    
Minimum Humidity 59    
Precipitation  
Precipitation 0.00 in - - ()
Sea Level Pressure  
Sea Level Pressure 30.28 in    
Wind  
Wind Speed 9 mph (West)    
Max Wind Speed 14 mph    
Max Gust Speed 21 mph    
Visibility 10 miles    
Events      
Averages and records for this station are not official NWS values.
T = Trace of Precipitation, MM = Missing Value Source: NWS Daily Summary

Daily Weather History Graph

Daily Weather History Graph

Search for Another Location

Airport or City:

Trip Planner

Search our weather history database for the weather conditions in past years. The results will help you decide how hot, cold, wet, or windy it might be!

Date:

Astronomy

Nov. 15, 2012 Rise Set
Actual Time 7:32 AM CST 4:41 PM CST
Civil Twilight 6:58 AM CST 5:16 PM CST
Nautical Twilight 6:19 AM CST 5:54 PM CST
Astronomical Twilight 5:42 AM CST 6:32 PM CST
Moon 9:35 AM CST (11/15) 6:28 PM CST (11/15)
Length of Visible Light 10h 18m
Length of Day
9h 09m
Waxing Crescent, 5% of the Moon is Illuminated
Nov 15
Waxing Crescent
Nov 20
First Quarter
Nov 28
Full
Dec 6
Last Quarter
Dec 13
New

Hourly Weather History & Observations

Time (CST) Temp. Windchill Dew Point Humidity Pressure Visibility Wind Dir Wind Speed Gust Speed Precip Events Conditions
12:14 AM 35.6 °F 28.6 °F 30.2 °F 81% 29.96 in 10.0 mi SSW 9.2 mph - N/A   Mostly Cloudy
12:34 AM 35.6 °F 28.0 °F 30.2 °F 81% 29.96 in 10.0 mi SW 10.4 mph - N/A   Scattered Clouds
12:54 AM 35.6 °F 28.0 °F 30.2 °F 81% 29.96 in 10.0 mi SW 10.4 mph - N/A   Clear
1:14 AM 33.8 °F 27.0 °F 28.4 °F 81% 29.96 in 10.0 mi WSW 8.1 mph - N/A   Clear
1:35 AM 33.8 °F 26.4 °F 28.4 °F 81% 29.96 in 10.0 mi SW 9.2 mph - N/A   Clear
1:54 AM 33.8 °F 25.8 °F 28.4 °F 81% 29.97 in 10.0 mi SW 10.4 mph - N/A   Clear
2:14 AM 33.8 °F 26.4 °F 28.4 °F 81% 29.98 in 10.0 mi WSW 9.2 mph - N/A   Clear
2:35 AM 33.8 °F 25.3 °F 28.4 °F 81% 29.99 in 10.0 mi West 11.5 mph 19.6 mph N/A   Clear
2:54 AM 32.0 °F 23.0 °F 26.6 °F 80% 30.01 in 10.0 mi West 11.5 mph 20.7 mph N/A   Clear
3:14 AM 30.2 °F 20.8 °F 24.8 °F 80% 30.02 in 10.0 mi WNW 11.5 mph 16.1 mph N/A   Clear
3:35 AM 28.4 °F 19.1 °F 24.8 °F 86% 30.03 in 10.0 mi WNW 10.4 mph 16.1 mph N/A   Clear
3:54 AM 28.4 °F 19.1 °F 23.0 °F 80% 30.04 in 10.0 mi WNW 10.4 mph 17.3 mph N/A   Clear
4:14 AM 26.6 °F 17.5 °F 21.2 °F 80% 30.06 in 10.0 mi WNW 9.2 mph - N/A   Clear
4:35 AM 26.6 °F 18.2 °F 21.2 °F 80% 30.07 in 10.0 mi WNW 8.1 mph - N/A   Clear
4:54 AM 26.6 °F 18.2 °F 21.2 °F 80% 30.09 in 10.0 mi WNW 8.1 mph - N/A   Clear
5:14 AM 26.6 °F 18.2 °F 21.2 °F 80% 30.11 in 10.0 mi WNW 8.1 mph - N/A   Clear
5:35 AM 24.8 °F 16.1 °F 19.4 °F 80% 30.12 in 10.0 mi WNW 8.1 mph - N/A   Clear
5:54 AM 24.8 °F 15.3 °F 19.4 °F 80% 30.14 in 10.0 mi NW 9.2 mph - N/A   Clear
6:14 AM 23.0 °F 14.7 °F 17.6 °F 80% 30.15 in 10.0 mi WNW 6.9 mph - N/A   Clear
6:34 AM 24.8 °F 16.9 °F 19.4 °F 80% 30.16 in 10.0 mi WNW 6.9 mph - N/A   Clear
6:54 AM 23.0 °F 14.7 °F 17.6 °F 80% 30.18 in 10.0 mi West 6.9 mph - N/A   Clear
7:14 AM 21.2 °F 10.9 °F 17.6 °F 86% 30.19 in 10.0 mi West 9.2 mph - N/A   Clear
7:34 AM 21.2 °F 10.9 °F 15.8 °F 80% 30.20 in 10.0 mi West 9.2 mph - N/A   Clear
7:54 AM 21.2 °F 10.1 °F 15.8 °F 80% 30.21 in 10.0 mi West 10.4 mph - N/A   Clear
8:14 AM 21.2 °F 10.1 °F 15.8 °F 80% 30.23 in 10.0 mi WNW 10.4 mph - N/A   Clear
8:34 AM 21.2 °F 9.5 °F 15.8 °F 80% 30.25 in 10.0 mi West 11.5 mph - N/A   Clear
8:54 AM 21.2 °F 10.1 °F 15.8 °F 80% 30.26 in 10.0 mi WNW 10.4 mph 16.1 mph N/A   Clear
9:14 AM 21.2 °F 9.5 °F 15.8 °F 80% 30.27 in 10.0 mi NW 11.5 mph - N/A   Clear
9:34 AM 21.2 °F 8.9 °F 15.8 °F 80% 30.29 in 10.0 mi NW 12.7 mph - N/A   Clear
9:54 AM 23.0 °F 10.6 °F 15.8 °F 74% 30.30 in 10.0 mi NW 13.8 mph - N/A   Clear
10:14 AM 23.0 °F 11.7 °F 15.8 °F 74% 30.32 in 10.0 mi NW 11.5 mph - N/A   Clear
10:34 AM 23.0 °F 10.6 °F 14.0 °F 68% 30.33 in 10.0 mi NW 13.8 mph - N/A   Clear
10:54 AM 23.0 °F 12.4 °F 14.0 °F 68% 30.34 in 10.0 mi NW 10.4 mph - N/A   Clear
11:14 AM 23.0 °F 13.1 °F 12.2 °F 63% 30.35 in 10.0 mi WNW 9.2 mph - N/A   Clear
11:34 AM 24.8 °F 15.3 °F 12.2 °F 59% 30.35 in 10.0 mi WNW 9.2 mph - N/A   Clear
11:54 AM 24.8 °F 14.6 °F 14.0 °F 64% 30.35 in 10.0 mi NW 10.4 mph - N/A   Clear
12:14 PM 24.8 °F 14.6 °F 14.0 °F 64% 30.36 in 10.0 mi WNW 10.4 mph - N/A   Clear
12:35 PM 24.8 °F 14.0 °F 14.0 °F 64% 30.36 in 10.0 mi WNW 11.5 mph - N/A   Clear
12:54 PM 24.8 °F 15.3 °F 14.0 °F 64% 30.37 in 10.0 mi WNW 9.2 mph - N/A   Clear
1:14 PM 26.6 °F 17.5 °F 14.0 °F 59% 30.36 in 10.0 mi West 9.2 mph - N/A   Clear
1:34 PM 26.6 °F 18.2 °F 14.0 °F 59% 30.37 in 10.0 mi WNW 8.1 mph - N/A   Clear
1:54 PM 26.6 °F 18.2 °F 15.8 °F 64% 30.38 in 10.0 mi WNW 8.1 mph - N/A   Clear
2:14 PM 24.8 °F 15.3 °F 15.8 °F 69% 30.38 in 10.0 mi West 9.2 mph - N/A   Clear
2:34 PM 24.8 °F 15.3 °F 15.8 °F 69% 30.39 in 10.0 mi West 9.2 mph - N/A   Clear
2:54 PM 24.8 °F 16.9 °F 15.8 °F 69% 30.39 in 10.0 mi West 6.9 mph - N/A   Clear
3:14 PM 24.8 °F 15.3 °F 14.0 °F 64% 30.40 in 10.0 mi West 9.2 mph - N/A   Clear
3:34 PM 24.8 °F 15.3 °F 14.0 °F 64% 30.41 in 10.0 mi West 9.2 mph - N/A   Clear
3:54 PM 24.8 °F 16.1 °F 14.0 °F 64% 30.42 in 10.0 mi West 8.1 mph - N/A   Clear
4:14 PM 24.8 °F 16.9 °F 14.0 °F 64% 30.42 in 10.0 mi WNW 6.9 mph - N/A   Clear
4:34 PM 23.0 °F 15.8 °F 14.0 °F 68% 30.43 in 10.0 mi West 5.8 mph - N/A   Clear
4:54 PM 23.0 °F 17.0 °F 14.0 °F 68% 30.43 in 10.0 mi West 4.6 mph - N/A   Clear
5:14 PM 21.2 °F 14.9 °F 12.2 °F 68% 30.42 in 10.0 mi West 4.6 mph - N/A   Clear
5:34 PM 21.2 °F 16.4 °F 12.2 °F 68% 30.43 in 10.0 mi West 3.5 mph - N/A   Clear
5:54 PM 21.2 °F 14.9 °F 12.2 °F 68% 30.43 in 10.0 mi West 4.6 mph - N/A   Clear
6:14 PM 19.4 °F - 10.4 °F 68% 30.43 in 10.0 mi Calm Calm - N/A   Clear
6:34 PM 19.4 °F - 10.4 °F 68% 30.43 in 10.0 mi Calm Calm - N/A   Clear
6:54 PM 17.6 °F - 10.4 °F 73% 30.43 in 10.0 mi Calm Calm - N/A   Clear
7:14 PM 15.8 °F - 10.4 °F 79% 30.42 in 10.0 mi Calm Calm - N/A   Clear
7:34 PM 15.8 °F 10.2 °F 10.4 °F 79% 30.42 in 10.0 mi South 3.5 mph - N/A   Clear
7:54 PM 15.8 °F 8.6 °F 8.6 °F 73% 30.42 in 10.0 mi South 4.6 mph - N/A   Clear
8:14 PM 14.0 °F 6.5 °F 8.6 °F 79% 30.42 in 10.0 mi South 4.6 mph - N/A   Clear
8:34 PM 12.2 °F 2.9 °F 8.6 °F 85% 30.42 in 10.0 mi SSW 5.8 mph - N/A   Clear
8:55 PM 15.8 °F 6.1 °F 10.4 °F 79% 30.42 in 10.0 mi SSW 6.9 mph - N/A   Clear
9:14 PM 15.8 °F 8.6 °F 10.4 °F 79% 30.43 in 10.0 mi SSW 4.6 mph - N/A   Clear
9:34 PM 14.0 °F 5.1 °F 8.6 °F 79% 30.43 in 10.0 mi South 5.8 mph - N/A   Clear
9:55 PM 14.0 °F 5.1 °F 8.6 °F 79% 30.42 in 10.0 mi South 5.8 mph - N/A   Clear
10:14 PM 15.8 °F 8.6 °F 10.4 °F 79% 30.42 in 10.0 mi SSW 4.6 mph - N/A   Clear
10:35 PM 14.0 °F 5.1 °F 8.6 °F 79% 30.42 in 10.0 mi South 5.8 mph - N/A   Clear
10:54 PM 15.8 °F 10.2 °F 8.6 °F 73% 30.42 in 10.0 mi SSW 3.5 mph - N/A   Clear
11:14 PM 12.2 °F 2.9 °F 8.6 °F 85% 30.43 in 10.0 mi South 5.8 mph - N/A   Clear
11:35 PM 12.2 °F 2.9 °F 8.6 °F 85% 30.43 in 10.0 mi South 5.8 mph - N/A   Clear
11:54 PM 12.2 °F 2.9 °F 8.6 °F 85% 30.42 in 10.0 mi South 5.8 mph - N/A   Clear